Tracking 19245 objects as of 17-Aug-2018
HD Live streaming from Space Station
objects crossing your sky now

GLOBALSTAR M042

Track GLOBALSTAR M042 now!
10-day predictions
GLOBALSTAR M042 is classified as:


NORAD ID: 25679
Int'l Code: 1999-019D
Perigee: 1,588.5 km
Apogee: 1,593.4 km
Inclination: 52.0 °
Period: 117.8 minutes
Semi major axis: 7961 km
RCS: 2.3601 m2 (large)
Launch date: April 15, 1999
Source: Globalstar (GLOB)
Launch site: TYURATAM MISSILE AND SPACE COMPLEX (TTMTR)
aabbcc
Your satellite tracking list
Your tracking list is empty




NASA's NSSDC Master Catalog

Two Line Element Set (TLE):
1 25679U 99019D   18228.52489928 -.00000085  00000-0  63218-4 0  9993
2 25679  51.9994 258.4500 0003086 206.8179 306.4998 12.22004808880082
Source of the keplerian elements: AFSPC